Regional Weather Roundup
Issued by NWS Charleston, WV

Home | Current Version | Previous Version | Graphics & Text | Print | Product List | Glossary On
Versions: 1 2 3 4 5 6 7 8 9 10 11 12 13 14 15 16 17 18 19 20 21 22 23 24 25 26 27 28 29 30 31 32 33 34 35 36 37 38 39 40 41 42 43 44 45 46
000
ASUS41 KRLX 252110
RWRRLX
West Virginia Regional Weather Roundup
National Weather Service Charleston WV
400 PM EST SAT FEB 25 2017

Note: "fair" indicates few or no clouds below 12,000 feet with no
significant weather and/or obstructions to visibility.

WVZ003-252200-
Northern Panhandle of West Virginia

CITY           SKY/WX    TMP DP  RH WIND       PRES   REMARKS
WHEELING       CLOUDY    39  21  48 W17G36    29.74R
$$

WVZ009-252200-
Northwest West Virginia

CITY           SKY/WX    TMP DP  RH WIND       PRES   REMARKS
PARKERSBURG    CLOUDY    41  22  46 W15G30    29.84R
$$

WVZ006-252200-
Western West Virginia

CITY           SKY/WX    TMP DP  RH WIND       PRES   REMARKS
HUNTINGTON     CLOUDY    39  22  50 W14G29    29.91R
$$

WVZ015-252200-
West Central West Virginia

CITY           SKY/WX    TMP DP  RH WIND       PRES   REMARKS
CHARLESTON     PTSUNNY   46  24  42 W17G30    29.83R
$$

WVZ022-031-252200-
North Central West Virginia

CITY           SKY/WX    TMP DP  RH WIND       PRES   REMARKS
CLARKSBURG     MOSUNNY   46  31  55 W24G33    29.72R
MORGANTOWN     PTSUNNY   46  30  53 W14G22    29.71R
$$

WVZ025-035-042-045-252200-
Southern West Virginia

CITY           SKY/WX    TMP DP  RH WIND       PRES   REMARKS
BECKLEY        SUNNY     46  26  45 W20G30    29.74R
LOGAN          CLOUDY    46  27  46 W9G21     29.81R
BLUEFIELD      PTSUNNY   47  27  45 NW14G22   29.73S
LEWISBURG      MOSUNNY   48  30  50 W14G21    29.71S
$$

WVZ047-252200-
Northern Mountains of West Virginia

CITY           SKY/WX    TMP DP  RH WIND       PRES   REMARKS
ELKINS         PTSUNNY   47  29  49 W13G25    29.70R
$$

WVZ052-252200-
Eastern Panhandle of West Virginia

CITY           SKY/WX    TMP DP  RH WIND       PRES   REMARKS
MARTINSBURG    CLOUDY    52  40  63 NW20G30   29.58R
PETERSBURG     SUNNY     53  34  48 SW22G39   29.64R
$$




USA.gov is the U.S. government's official web portal to all federal, state and local government web resources and services.